�������l�o���
Date,Time,MP-1(��Sv/h),MP-2(��Sv/h),MP-3(��Sv/h),MP-4(��Sv/h),MP-5(��Sv/h),MP-6(��Sv/h),MP-7(��Sv/h),MP-8(��Sv/h),����,����(m/s),���J
2017/11/08,00:00,0.913,1.457,0.921,1.724,1.179,0.499,0.911,0.847,���쐼,1.5,��
2017/11/08,00:10,0.910,1.459,0.921,1.724,1.182,0.501,0.911,0.847,�k�k��,1.9,��
2017/11/08,00:20,0.912,1.455,0.923,1.726,1.182,0.502,0.910,0.848,�k��,2.3,��
2017/11/08,00:30,0.914,1.454,0.925,1.723,1.179,0.502,0.909,0.847,�k�k��,3.0,��
2017/11/08,00:40,0.914,1.457,0.921,1.725,1.180,0.500,0.911,0.847,�k,3.5,��
2017/11/08,00:50,0.913,1.457,0.921,1.724,1.182,0.502,0.910,0.848,�k�k��,3.8,��
2017/11/08,01:00,0.913,1.460,0.922,1.725,1.181,0.500,0.912,0.848,�k�k��,3.7,��
2017/11/08,01:10,0.911,1.456,0.923,1.724,1.183,0.500,0.909,0.846,�k,4.0,��
2017/11/08,01:20,0.911,1.459,0.919,1.727,1.180,0.502,0.912,0.846,�k,4.2,��
2017/11/08,01:30,0.910,1.458,0.921,1.725,1.182,0.499,0.911,0.848,�k,3.6,��
2017/11/08,01:40,0.912,1.458,0.921,1.724,1.182,0.500,0.912,0.848,�k,3.3,��
2017/11/08,01:50,0.913,1.459,0.923,1.727,1.181,0.501,0.910,0.847,�k�k��,3.9,��
2017/11/08,02:00,0.913,1.456,0.923,1.723,1.180,0.500,0.910,0.847,�k�k��,4.3,��
2017/11/08,02:10,0.914,1.459,0.922,1.725,1.181,0.500,0.912,0.847,�k�k��,4.5,��
2017/11/08,02:20,0.911,1.459,0.924,1.724,1.181,0.502,0.911,0.847,�k,4.2,��
2017/11/08,02:30,0.913,1.458,0.924,1.726,1.181,0.500,0.911,0.849,�k,3.7,��
2017/11/08,02:40,0.911,1.459,0.922,1.727,1.182,0.501,0.911,0.847,�k,3.7,��
2017/11/08,02:50,0.914,1.460,0.925,1.726,1.181,0.501,0.912,0.847,�k,4.2,��
2017/11/08,03:00,0.913,1.456,0.922,1.727,1.180,0.501,0.912,0.845,�k�k��,3.9,��
2017/11/08,03:10,0.912,1.458,0.922,1.725,1.181,0.501,0.910,0.848,�k,3.9,��
2017/11/08,03:20,0.913,1.457,0.923,1.727,1.182,0.500,0.911,0.847,�k�k��,3.2,��
2017/11/08,03:30,0.914,1.458,0.922,1.723,1.183,0.500,0.910,0.848,�k,3.7,��
2017/11/08,03:40,0.913,1.460,0.922,1.726,1.182,0.501,0.910,0.847,�k,3.6,��
2017/11/08,03:50,0.914,1.456,0.924,1.725,1.182,0.502,0.910,0.845,�k,3.4,��
2017/11/08,04:00,0.913,1.461,0.923,1.725,1.182,0.500,0.912,0.848,�k,3.7,��
2017/11/08,04:10,0.913,1.458,0.922,1.725,1.180,0.500,0.909,0.849,�k�k��,3.4,��
2017/11/08,04:20,0.913,1.457,0.922,1.726,1.182,0.501,0.910,0.847,�k�k��,3.2,��
2017/11/08,04:30,0.913,1.457,0.922,1.727,1.183,0.500,0.911,0.848,�k�k��,3.6,��
2017/11/08,04:40,0.913,1.459,0.921,1.724,1.180,0.501,0.912,0.848,�k�k��,3.6,��
2017/11/08,04:50,0.912,1.458,0.922,1.728,1.180,0.501,0.911,0.847,�k�k��,3.5,��
2017/11/08,05:00,0.912,1.458,0.921,1.724,1.178,0.501,0.911,0.847,�k�k��,3.0,��
2017/11/08,05:10,0.914,1.460,0.922,1.726,1.182,0.501,0.910,0.848,�k,2.8,��
2017/11/08,05:20,0.914,1.459,0.921,1.726,1.181,0.502,0.909,0.848,�k�k��,1.9,��
2017/11/08,05:30,0.911,1.456,0.922,1.725,1.178,0.502,0.910,0.848,�k�k��,2.6,��
2017/11/08,05:40,0.911,1.457,0.922,1.724,1.180,0.501,0.912,0.849,�k��,3.4,��
2017/11/08,05:50,0.912,1.458,0.923,1.725,1.181,0.500,0.910,0.849,�k��,4.0,��
2017/11/08,06:00,0.911,1.455,0.923,1.726,1.183,0.501,0.909,0.847,�k��,4.2,��
2017/11/08,06:10,0.912,1.457,0.923,1.727,1.184,0.500,0.910,0.848,�k��,5.3,��
2017/11/08,06:20,0.914,1.459,0.922,1.724,1.181,0.500,0.911,0.847,���k��,6.0,��
2017/11/08,06:30,0.915,1.458,0.924,1.725,1.184,0.502,0.911,0.849,���k��,4.7,��
2017/11/08,06:40,0.913,1.456,0.922,1.726,1.180,0.499,0.909,0.848,���k��,4.3,��
2017/11/08,06:50,0.914,1.458,0.922,1.725,1.181,0.500,0.911,0.848,���k��,3.1,��
2017/11/08,07:00,0.916,1.456,0.922,1.723,1.182,0.501,0.909,0.848,��,3.7,��
2017/11/08,07:10,0.914,1.457,0.921,1.725,1.182,0.500,0.911,0.847,���쐼,2.6,��
2017/11/08,07:20,0.914,1.457,0.921,1.725,1.182,0.501,0.911,0.848,���쐼,3.7,��
2017/11/08,07:30,0.914,1.458,0.923,1.726,1.183,0.503,0.912,0.849,�쐼,4.0,��
2017/11/08,07:40,0.912,1.459,0.922,1.725,1.182,0.503,0.911,0.849,��쐼,3.4,��
2017/11/08,07:50,0.914,1.459,0.923,1.726,1.181,0.502,0.912,0.850,��쐼,2.6,��
2017/11/08,08:00,0.914,1.456,0.923,1.730,1.183,0.501,0.911,0.850,��,2.9,��
2017/11/08,08:10,0.913,1.456,0.924,1.727,1.182,0.501,0.913,0.849,��쐼,3.8,��
2017/11/08,08:20,0.914,1.459,0.922,1.719,1.184,0.503,0.911,0.849,�쐼,3.6,��
2017/11/08,08:30,0.913,1.456,0.923,1.724,1.181,0.503,0.912,0.849,��쐼,3.0,��
2017/11/08,08:40,0.915,1.458,0.923,1.722,1.182,0.501,0.911,0.849,��쐼,2.0,��
2017/11/08,08:50,0.916,1.457,0.922,1.722,1.186,0.501,0.910,0.850,�쐼,2.3,��
2017/11/08,09:00,0.914,1.459,0.925,1.726,1.183,0.500,0.910,0.849,�쐼,1.9,��
2017/11/08,09:10,0.914,1.458,0.924,1.725,1.186,0.503,0.909,0.849,���쐼,2.0,��
2017/11/08,09:20,0.913,1.457,0.926,1.727,1.185,0.502,0.912,0.850,�쐼,1.5,��
2017/11/08,09:30,0.916,1.460,0.922,1.725,1.185,0.502,0.910,0.851,���쐼,1.7,��
2017/11/08,09:40,0.916,1.455,0.924,1.726,1.185,0.503,0.909,0.850,���쐼,1.2,��
2017/11/08,09:50,0.914,1.454,0.926,1.728,1.185,0.501,0.911,0.851,��,0.9,��
2017/11/08,10:00,0.915,1.457,0.925,1.728,1.184,0.502,0.912,0.850,���k��,0.6,��
2017/11/08,10:10,0.917,1.455,0.925,1.726,1.186,0.503,0.910,0.848,�k��,0.6,��
2017/11/08,10:20,0.915,1.458,0.924,1.728,1.183,0.503,0.909,0.851,��,0.6,��
2017/11/08,10:30,0.915,1.454,0.925,1.727,1.185,0.501,0.909,0.851,�쐼,0.6,��
2017/11/08,10:40,0.916,1.460,0.926,1.725,1.186,0.502,0.910,0.848,��,1.5,��
2017/11/08,10:50,0.918,1.458,0.926,1.729,1.184,0.503,0.909,0.851,���쐼,1.2,��
2017/11/08,11:00,0.917,1.452,0.926,1.727,1.185,0.503,0.910,0.849,��쓌,1.2,��
2017/11/08,11:10,0.917,1.459,0.925,1.728,1.189,0.502,0.910,0.849,��쓌,2.3,��
2017/11/08,11:20,0.917,1.459,0.927,1.728,1.184,0.502,0.911,0.848,��,1.5,��
2017/11/08,11:30,0.915,1.459,0.924,1.731,1.185,0.503,0.911,0.849,��,1.2,��
2017/11/08,11:40,0.915,1.459,0.926,1.729,1.184,0.504,0.909,0.848,���쐼,1.4,��
2017/11/08,11:50,0.915,1.462,0.926,1.728,1.185,0.502,0.911,0.848,���쐼,0.9,��
2017/11/08,12:00,0.915,1.460,0.927,1.727,1.184,0.503,0.912,0.849,�쐼,1.1,��
2017/11/08,12:10,0.916,1.459,0.926,1.729,1.183,0.504,0.910,0.849,��,2.0,��
2017/11/08,12:20,0.916,1.464,0.928,1.729,1.185,0.503,0.910,0.848,��,1.2,��
2017/11/08,12:30,0.920,1.460,0.927,1.727,1.183,0.502,0.911,0.848,��,1.7,��
2017/11/08,12:40,0.916,1.462,0.928,1.729,1.185,0.503,0.912,0.848,�쐼,3.1,��
2017/11/08,12:50,0.920,1.465,0.928,1.731,1.185,0.502,0.911,0.849,��,0.6,��
2017/11/08,13:00,0.919,1.459,0.928,1.730,1.187,0.504,0.913,0.850,��쓌,1.7,��
2017/11/08,13:10,0.918,1.463,0.926,1.729,1.186,0.502,0.911,0.848,�쓌,2.8,��
2017/11/08,13:20,0.916,1.458,0.926,1.731,1.184,0.502,0.912,0.850,��쓌,4.1,��
2017/11/08,13:30,0.918,1.463,0.928,1.729,1.184,0.502,0.912,0.850,��쓌,3.6,��
2017/11/08,13:40,0.917,1.461,0.926,1.729,1.182,0.502,0.911,0.850,��,4.1,��
2017/11/08,13:50,0.917,1.461,0.925,1.731,1.183,0.500,0.910,0.849,��,3.5,��
2017/11/08,14:00,0.915,1.461,0.923,1.732,1.184,0.501,0.907,0.850,��,3.4,��
2017/11/08,14:10,0.915,1.459,0.927,1.728,1.186,0.502,0.910,0.851,��,3.3,��
2017/11/08,14:20,0.919,1.459,0.927,1.729,1.185,0.502,0.912,0.850,��,3.4,��
2017/11/08,14:30,0.917,1.462,0.927,1.729,1.185,0.503,0.911,0.851,��,5.5,��
2017/11/08,14:40,0.918,1.461,0.926,1.729,1.186,0.504,0.912,0.849,��,5.0,��
2017/11/08,14:50,0.916,1.460,0.927,1.730,1.188,0.503,0.913,0.851,��,5.3,��
2017/11/08,15:00,0.918,1.460,0.929,1.729,1.186,0.503,0.911,0.853,��,4.8,��
2017/11/08,15:10,0.915,1.462,0.927,1.730,1.188,0.502,0.911,0.849,��,4.9,��
2017/11/08,15:20,0.916,1.458,0.926,1.727,1.187,0.503,0.913,0.852,��,4.3,��
2017/11/08,15:30,0.918,1.463,0.925,1.729,1.187,0.504,0.911,0.850,��,3.8,��
2017/11/08,15:40,0.917,1.462,0.927,1.730,1.187,0.503,0.913,0.850,��,3.6,��
2017/11/08,15:50,0.919,1.462,0.926,1.730,1.185,0.504,0.913,0.851,��,4.3,��
2017/11/08,16:00,0.916,1.461,0.927,1.725,1.189,0.504,0.914,0.850,��,5.0,��
2017/11/08,16:10,0.919,1.463,0.926,1.729,1.188,0.504,0.916,0.851,��,4.8,��
2017/11/08,16:20,0.920,1.463,0.927,1.731,1.188,0.506,0.913,0.852,��쐼,4.2,��
2017/11/08,16:30,0.920,1.463,0.928,1.727,1.188,0.504,0.913,0.850,��쐼,4.8,��
2017/11/08,16:40,0.918,1.463,0.926,1.729,1.189,0.504,0.914,0.849,��쐼,5.0,��
2017/11/08,16:50,0.918,1.462,0.924,1.728,1.186,0.503,0.915,0.848,��쐼,4.0,��
2017/11/08,17:00,0.918,1.462,0.928,1.728,1.187,0.505,0.914,0.850,��쐼,2.5,��
2017/11/08,17:10,0.916,1.462,0.923,1.725,1.187,0.503,0.913,0.850,��쐼,1.5,��
2017/11/08,17:20,0.916,1.464,0.926,1.726,1.187,0.503,0.913,0.849,��,2.0,��
2017/11/08,17:30,0.918,1.464,0.926,1.726,1.188,0.503,0.914,0.851,���k��,2.6,��
2017/11/08,17:40,0.916,1.463,0.927,1.728,1.187,0.504,0.914,0.850,���k��,3.8,��
2017/11/08,17:50,0.919,1.462,0.925,1.726,1.186,0.505,0.913,0.849,���k��,6.3,��
2017/11/08,18:00,0.917,1.461,0.926,1.730,1.189,0.504,0.915,0.851,���k��,8.7,��
2017/11/08,18:10,0.917,1.461,0.928,1.730,1.189,0.503,0.913,0.851,���k��,5.9,��
2017/11/08,18:20,0.914,1.464,0.929,1.728,1.186,0.503,0.918,0.850,���k��,7.2,��
2017/11/08,18:30,0.915,1.462,0.928,1.729,1.188,0.504,0.915,0.848,���k��,3.8,��
2017/11/08,18:40,0.913,1.462,0.927,1.728,1.190,0.503,0.914,0.851,�k��,3.1,��
2017/11/08,18:50,0.916,1.462,0.927,1.727,1.187,0.504,0.913,0.849,�k��,5.9,��
2017/11/08,19:00,0.917,1.462,0.926,1.729,1.187,0.505,0.915,0.850,�k��,5.0,��
2017/11/08,19:10,0.918,1.461,0.926,1.731,1.189,0.504,0.915,0.851,���k��,2.3,��
2017/11/08,19:20,0.917,1.464,0.927,1.728,1.188,0.502,0.914,0.848,��쐼,1.9,��
2017/11/08,19:30,0.918,1.461,0.928,1.730,1.186,0.503,0.916,0.850,�쐼,3.2,��
2017/11/08,19:40,0.915,1.464,0.929,1.728,1.189,0.504,0.916,0.850,�쐼,3.9,��
2017/11/08,19:50,0.916,1.462,0.929,1.728,1.189,0.503,0.913,0.851,�쐼,3.6,��
2017/11/08,20:00,0.918,1.464,0.927,1.730,1.187,0.504,0.915,0.851,���쐼,2.9,��
2017/11/08,20:10,0.915,1.462,0.927,1.729,1.188,0.504,0.915,0.851,���k��,3.7,��
2017/11/08,20:20,0.919,1.463,0.929,1.729,1.188,0.504,0.914,0.850,���k��,7.6,��
2017/11/08,20:30,0.918,1.464,0.928,1.731,1.187,0.505,0.915,0.852,��,5.6,��
2017/11/08,20:40,0.919,1.464,0.929,1.730,1.188,0.505,0.918,0.852,�쐼,1.9,��
2017/11/08,20:50,0.918,1.464,0.928,1.730,1.189,0.504,0.916,0.851,�k��,2.6,��
2017/11/08,21:00,0.917,1.464,0.928,1.729,1.189,0.504,0.915,0.852,�k,3.3,��
2017/11/08,21:10,0.917,1.465,0.927,1.730,1.187,0.504,0.913,0.852,���k��,6.3,��
2017/11/08,21:20,0.918,1.465,0.928,1.730,1.191,0.506,0.916,0.851,��,8.0,��
2017/11/08,21:30,0.916,1.463,0.929,1.733,1.189,0.504,0.917,0.851,��,11.4,��
2017/11/08,21:40,0.919,1.465,0.931,1.733,1.187,0.504,0.914,0.854,��,9.2,��
2017/11/08,21:50,0.917,1.463,0.929,1.734,1.189,0.504,0.913,0.850,��,7.8,��
2017/11/08,22:00,0.919,1.466,0.929,1.730,1.188,0.504,0.915,0.851,��,8.1,��
2017/11/08,22:10,0.917,1.462,0.929,1.734,1.186,0.504,0.913,0.850,���k��,4.5,��
2017/11/08,22:20,0.918,1.465,0.928,1.734,1.187,0.503,0.916,0.848,�k�k��,3.8,��
2017/11/08,22:30,0.918,1.464,0.931,1.731,1.186,0.503,0.914,0.851,�k�k��,1.7,��
2017/11/08,22:40,0.918,1.463,0.931,1.732,1.186,0.504,0.912,0.850,�k�k��,4.1,��
2017/11/08,22:50,0.919,1.465,0.930,1.730,1.187,0.506,0.912,0.849,�k��,3.1,��
2017/11/08,23:00,0.919,1.464,0.929,1.730,1.189,0.506,0.913,0.851,�k��,3.2,��
2017/11/08,23:10,0.918,1.466,0.927,1.734,1.186,0.507,0.915,0.850,���k��,4.6,��
2017/11/08,23:20,0.919,1.465,0.929,1.732,1.188,0.507,0.914,0.852,���k��,6.1,��
2017/11/08,23:30,0.917,1.465,0.928,1.732,1.188,0.506,0.913,0.850,��,5.2,��
2017/11/08,23:40,0.917,1.466,0.929,1.731,1.188,0.506,0.915,0.850,��,5.4,��
2017/11/08,23:50,0.918,1.463,0.929,1.733,1.188,0.505,0.914,0.851,���k��,5.9,��
